Weather History for KARB - October, 2011

Change the Weather History Date:

Monday, October 31, 2011

  Actual Average Record
Temperature  
Mean Temperature 41 °F -  
Max Temperature 48 °F 54 °F 72 °F (2003)
Min Temperature 32 °F 34 °F 23 °F (2002)
Degree Days  
Heating Degree Days 24    
Moisture  
Dew Point 37 °F    
Average Humidity 78    
Maximum Humidity 100    
Minimum Humidity 61    
Precipitation  
Precipitation 0.00 in - - ()
Sea Level Pressure  
Sea Level Pressure 30.09 in    
Wind  
Wind Speed 4 mph (South)    
Max Wind Speed 12 mph    
Max Gust Speed -    
Visibility 9 miles    
Events Fog    
Averages and records for this station are not official NWS values.
T = Trace of Precipitation, MM = Missing Value Source: NWS Daily Summary

Daily Weather History Graph

Daily Weather History Graph

Search for Another Location

Airport or City:

Trip Planner

Search our weather history database for the weather conditions in past years. The results will help you decide how hot, cold, wet, or windy it might be!

Date:

Astronomy

Oct. 31, 2011 Rise Set
Actual Time 8:06 AM EDT 6:30 PM EDT
Civil Twilight 7:37 AM EDT 6:59 PM EDT
Nautical Twilight 7:04 AM EDT 7:32 PM EDT
Astronomical Twilight 6:31 AM EDT 8:04 PM EDT
Moon 1:15 PM EDT (10/31) 11:02 PM EDT (10/31)
Length of Visible Light 11h 21m
Length of Day
10h 23m
Waxing Crescent, 29% of the Moon is Illuminated
Oct 31
Waxing Crescent
Nov 2
First Quarter
Nov 10
Full
Nov 18
Last Quarter
Nov 25
New

Hourly Weather History & Observations

Time (EDT) Temp. Windchill Dew Point Humidity Pressure Visibility Wind Dir Wind Speed Gust Speed Precip Events Conditions
12:53 AM 46.9 °F - 35.1 °F 63% 30.11 in 10.0 mi SSE 4.6 mph - N/A   Overcast
1:53 AM 46.9 °F - 35.1 °F 63% 30.10 in 10.0 mi South 4.6 mph - N/A   Overcast
2:53 AM 46.9 °F - 35.1 °F 63% 30.09 in 10.0 mi South 4.6 mph - N/A   Overcast
3:53 AM 46.9 °F - 34.0 °F 61% 30.08 in 10.0 mi SSE 6.9 mph - N/A   Overcast
4:53 AM 46.0 °F 42.5 °F 33.1 °F 61% 30.06 in 10.0 mi SE 6.9 mph - N/A   Overcast
5:53 AM 44.1 °F 41.5 °F 32.0 °F 63% 30.06 in 10.0 mi SSE 4.6 mph - N/A   Overcast
7:53 AM 43.0 °F - 32.0 °F 65% 30.05 in 10.0 mi Calm Calm - N/A   Overcast
8:53 AM 44.1 °F 41.5 °F 33.1 °F 65% 30.06 in 10.0 mi SSE 4.6 mph - N/A   Overcast
9:53 AM 46.0 °F 43.9 °F 34.0 °F 63% 30.06 in 10.0 mi South 4.6 mph - N/A   Overcast
10:53 AM 46.9 °F - 35.1 °F 63% 30.07 in 10.0 mi South 4.6 mph - N/A   Overcast
11:53 AM 46.9 °F - 37.0 °F 68% 30.07 in 10.0 mi SSW 11.5 mph - N/A   Overcast
12:53 PM 46.0 °F 41.4 °F 39.9 °F 79% 30.07 in 10.0 mi SSW 9.2 mph - 0.00 in   Overcast
1:09 PM 44.6 °F 39.2 °F 39.2 °F 81% 30.05 in 10.0 mi SSW 10.4 mph - N/A   Overcast
1:53 PM 46.0 °F 43.1 °F 41.0 °F 83% 30.05 in 10.0 mi SSE 5.8 mph - N/A   Overcast
2:53 PM 46.0 °F 42.5 °F 39.9 °F 79% 30.05 in 10.0 mi SSW 6.9 mph - N/A   Overcast
3:48 PM 44.6 °F 42.2 °F 39.2 °F 81% 30.05 in 10.0 mi SSW 4.6 mph - N/A   Overcast
3:53 PM 46.0 °F 43.9 °F 41.0 °F 83% 30.06 in 10.0 mi South 4.6 mph - N/A   Overcast
4:37 PM 44.6 °F 42.2 °F 41.0 °F 87% 30.06 in 10.0 mi South 4.6 mph - N/A   Overcast
4:53 PM 46.0 °F 42.5 °F 41.0 °F 83% 30.07 in 10.0 mi SSE 6.9 mph - N/A   Overcast
5:08 PM 46.4 °F - 42.8 °F 87% 30.07 in 10.0 mi Calm Calm - N/A   Overcast
5:53 PM 46.0 °F - 41.0 °F 83% 30.09 in 10.0 mi Calm Calm - N/A   Overcast
6:53 PM 45.0 °F - 41.0 °F 86% 30.11 in 10.0 mi Calm Calm - N/A   Overcast
7:53 PM 44.1 °F - 41.0 °F 89% 30.14 in 10.0 mi Calm Calm - N/A   Overcast
8:53 PM 44.1 °F - 41.0 °F 89% 30.15 in 10.0 mi Calm Calm - N/A   Overcast
10:10 PM 39.2 °F - 39.2 °F 100% 30.15 in 1.8 mi Calm Calm - N/A   Partly Cloudy
10:28 PM 37.4 °F - 35.6 °F 93% 30.15 in 0.8 mi Calm Calm - N/A   Clear
10:53 PM 36.0 °F - 36.0 °F 100% 30.17 in 0.2 mi Calm Calm - N/A Fog Fog
11:53 PM 32.0 °F - 30.9 °F 96% 30.19 in 0.2 mi Calm Calm - N/A Fog Fog